Denison, IA

4:26 PM CST on December 08, 2016 (GMT -0600)
Denison Municipal

Weather History for KDNS - February, 2012

Change the Weather History Date:

Tuesday, February 28, 2012

  Actual Average Record
Temperature  
Mean Temperature 40 °F -  
Max Temperature 48 °F 35 °F 59 °F (2006)
Min Temperature 32 °F 20 °F 0 °F (2001)
Degree Days  
Heating Degree Days 25    
Moisture  
Dew Point 36 °F    
Average Humidity 93    
Maximum Humidity 100    
Minimum Humidity 75    
Precipitation  
Precipitation 0.33 in - - ()
Sea Level Pressure  
Sea Level Pressure 29.96 in    
Wind  
Wind Speed 9 mph (SE)    
Max Wind Speed 22 mph    
Max Gust Speed 31 mph    
Visibility 8 miles    
Events Rain    
Averages and records for this station are not official NWS values.
T = Trace of Precipitation, MM = Missing Value Source: NWS Daily Summary

Daily Weather History Graph

Daily Weather History Graph

Search for Another Location

Airport or City:

Trip Planner

Search our weather history database for the weather conditions in past years. The results will help you decide how hot, cold, wet, or windy it might be!

Date:

Astronomy

Feb. 28, 2012 Rise Set
Actual Time 6:58 AM CST 6:09 PM CST
Civil Twilight 6:30 AM CST 6:38 PM CST
Nautical Twilight 5:58 AM CST 7:10 PM CST
Astronomical Twilight 5:26 AM CST 7:42 PM CST
Moon 9:59 AM CST (2/28) 12:10 AM CST (2/28)
Length of Visible Light 12h 07m
Length of Day
11h 11m
Waxing Crescent, 38% of the Moon is Illuminated
Feb 28
Waxing Crescent
Feb 29
First Quarter
Mar 8
Full
Mar 14
Last Quarter
Mar 22
New

Hourly Weather History & Observations

Time (CST) Temp. Windchill Dew Point Humidity Pressure Visibility Wind Dir Wind Speed Gust Speed Precip Events Conditions
12:15 AM 32.0 °F 24.2 °F 28.4 °F 87% 30.29 in 10.0 mi ESE 9.2 mph - N/A   Overcast
12:35 AM 32.0 °F 27.5 °F 30.2 °F 93% 30.29 in 10.0 mi ESE 4.6 mph - N/A   Overcast
12:55 AM 32.0 °F 28.7 °F 28.4 °F 87% 30.29 in 10.0 mi ESE 3.5 mph - N/A   Overcast
1:15 AM 33.8 °F 30.8 °F 28.4 °F 81% 30.30 in 10.0 mi SSE 3.5 mph - N/A   Overcast
1:35 AM 33.8 °F 25.8 °F 28.4 °F 81% 30.29 in 10.0 mi SE 10.4 mph - N/A   Overcast
1:55 AM 33.8 °F 25.8 °F 28.4 °F 81% 30.27 in 10.0 mi SE 10.4 mph 17.3 mph N/A   Overcast
2:15 AM 33.8 °F 27.7 °F 28.4 °F 81% 30.27 in 10.0 mi SE 6.9 mph - N/A   Overcast
2:35 AM 33.8 °F 27.7 °F 28.4 °F 81% 30.27 in 10.0 mi ESE 6.9 mph - N/A   Overcast
2:55 AM 33.8 °F 26.4 °F 28.4 °F 81% 30.25 in 10.0 mi SE 9.2 mph - N/A   Overcast
3:15 AM 33.8 °F 27.0 °F 28.4 °F 81% 30.24 in 10.0 mi SE 8.1 mph - N/A   Overcast
3:35 AM 33.8 °F 29.6 °F 28.4 °F 81% 30.22 in 10.0 mi ESE 4.6 mph - N/A   Overcast
3:55 AM 33.8 °F 29.6 °F 30.2 °F 87% 30.20 in 10.0 mi SE 4.6 mph - N/A   Overcast
4:15 AM 33.8 °F 28.6 °F 28.4 °F 81% 30.20 in 10.0 mi SE 5.8 mph - N/A   Overcast
4:35 AM 33.8 °F 27.7 °F 28.4 °F 81% 30.18 in 10.0 mi ESE 6.9 mph - N/A   Overcast
4:55 AM 35.6 °F 29.9 °F 28.4 °F 75% 30.17 in 10.0 mi SE 6.9 mph - N/A   Overcast
5:15 AM 35.6 °F 30.7 °F 28.4 °F 75% 30.16 in 10.0 mi ESE 5.8 mph - N/A   Overcast
5:35 AM 33.8 °F 29.6 °F 28.4 °F 81% 30.15 in 10.0 mi ESE 4.6 mph - N/A   Overcast
5:55 AM 33.8 °F 29.6 °F 28.4 °F 81% 30.15 in 10.0 mi SE 4.6 mph - N/A   Overcast
6:15 AM 35.6 °F 30.7 °F 28.4 °F 75% 30.14 in 10.0 mi ESE 5.8 mph - N/A   Overcast
6:35 AM 35.6 °F 29.9 °F 28.4 °F 75% 30.13 in 10.0 mi SE 6.9 mph - N/A   Overcast
6:55 AM 35.6 °F 29.2 °F 30.2 °F 81% 30.12 in 10.0 mi SE 8.1 mph - N/A   Overcast
7:15 AM 35.6 °F - 30.2 °F 81% 30.11 in 10.0 mi Calm Calm - N/A   Overcast
7:35 AM 35.6 °F 30.7 °F 30.2 °F 81% 30.11 in 10.0 mi ESE 5.8 mph - N/A Rain Light Rain
7:55 AM 33.8 °F 27.0 °F 32.0 °F 93% 30.12 in 5.0 mi SE 8.1 mph - N/A Rain Light Rain
8:15 AM 33.8 °F 27.7 °F 33.8 °F 100% 30.11 in 4.0 mi ESE 6.9 mph - 0.01 in   Overcast
8:35 AM 33.8 °F 25.8 °F 33.8 °F 100% 30.09 in 10.0 mi SE 10.4 mph - 0.02 in   Overcast
8:55 AM 33.8 °F 25.3 °F 33.8 °F 100% 30.08 in 7.0 mi SE 11.5 mph - 0.02 in   Overcast
9:15 AM 35.6 °F 27.1 °F 35.6 °F 100% 30.06 in 7.0 mi SE 12.7 mph 17.3 mph 0.01 in Rain Light Rain
9:35 AM 35.6 °F 28.6 °F 35.6 °F 100% 30.05 in 7.0 mi ESE 9.2 mph - 0.01 in Rain Rain
9:55 AM 35.6 °F 28.6 °F 35.6 °F 100% 30.03 in 10.0 mi SE 9.2 mph - 0.01 in   Mostly Cloudy
10:15 AM 37.4 °F 27.8 °F 37.4 °F 100% 30.01 in 10.0 mi SE 17.3 mph 24.2 mph N/A   Mostly Cloudy
10:35 AM 35.6 °F 26.6 °F 35.6 °F 100% 30.01 in 5.0 mi SE 13.8 mph 20.7 mph 0.01 in Rain Rain
10:55 AM 35.6 °F 29.9 °F 35.6 °F 100% 30.00 in 1.8 mi SSE 6.9 mph 16.1 mph 0.05 in Rain Heavy Rain
11:15 AM 35.6 °F 28.0 °F 35.6 °F 100% 29.98 in 4.0 mi SE 10.4 mph 18.4 mph 0.05 in Rain Light Rain
11:35 AM 35.6 °F 25.9 °F 35.6 °F 100% 29.96 in 7.0 mi SE 16.1 mph - 0.05 in Rain Light Rain
12:15 PM 37.4 °F 30.8 °F 37.4 °F 100% 29.93 in 4.0 mi SE 9.2 mph - 0.01 in Rain Rain
12:35 PM 37.4 °F 29.8 °F 37.4 °F 100% 29.88 in 10.0 mi ESE 11.5 mph 19.6 mph 0.03 in Rain Light Rain
12:55 PM 39.2 °F 31.6 °F 39.2 °F 100% 29.84 in 10.0 mi East 12.7 mph 18.4 mph 0.03 in   Mostly Cloudy
1:35 PM 41.0 °F 35.2 °F 41.0 °F 100% 29.84 in 10.0 mi SE 9.2 mph 16.1 mph N/A   Mostly Cloudy
1:55 PM 42.8 °F 39.3 °F 42.8 °F 100% 29.82 in 10.0 mi SE 5.8 mph - N/A   Overcast
2:15 PM 41.0 °F 35.2 °F 41.0 °F 100% 29.78 in 7.0 mi ESE 9.2 mph - 0.01 in Rain Light Rain
2:35 PM 41.0 °F 34.3 °F 41.0 °F 100% 29.75 in 7.0 mi ESE 11.5 mph 17.3 mph 0.03 in Rain Light Rain
2:55 PM 41.0 °F 34.3 °F 41.0 °F 100% 29.75 in 7.0 mi ESE 11.5 mph 16.1 mph 0.08 in Rain Rain
3:15 PM 42.8 °F 36.6 °F 42.8 °F 100% 29.71 in 5.0 mi ESE 11.5 mph 17.3 mph 0.08 in Rain Light Rain
3:35 PM 42.8 °F 35.8 °F 42.8 °F 100% 29.69 in 7.0 mi ESE 13.8 mph 25.3 mph 0.08 in Rain Light Rain
3:55 PM 42.8 °F 34.5 °F 42.8 °F 100% 29.68 in 10.0 mi ESE 18.4 mph 24.2 mph 0.09 in Rain Light Rain
4:15 PM 44.6 °F 37.2 °F 44.6 °F 100% 29.67 in 7.0 mi ESE 17.3 mph 21.9 mph N/A   Drizzle
4:35 PM 44.6 °F 40.7 °F 44.6 °F 100% 29.68 in 7.0 mi SE 6.9 mph - N/A Rain Light Rain
4:55 PM 44.6 °F 39.7 °F 44.6 °F 100% 29.67 in 10.0 mi SE 9.2 mph - N/A   Overcast
5:15 PM 44.6 °F 37.2 °F 44.6 °F 100% 29.66 in 3.0 mi SE 17.3 mph 21.9 mph N/A   Overcast
5:35 PM 44.6 °F 36.1 °F 44.6 °F 100% 29.64 in 5.0 mi SE 21.9 mph 28.8 mph N/A   Overcast
5:55 PM 44.6 °F 36.6 °F 44.6 °F 100% 29.63 in 2.5 mi SE 19.6 mph 31.1 mph N/A Rain Light Rain
6:15 PM 44.6 °F 36.4 °F 44.6 °F 100% 29.61 in 4.0 mi SE 20.7 mph 28.8 mph N/A   Overcast
6:35 PM 44.6 °F 36.9 °F 44.6 °F 100% 29.61 in 5.0 mi SE 18.4 mph 26.5 mph N/A   Overcast
6:55 PM 46.4 °F 39.5 °F 46.4 °F 100% 29.59 in 7.0 mi SE 17.3 mph 26.5 mph N/A   Overcast
7:15 PM 46.4 °F 39.2 °F 46.4 °F 100% 29.59 in 7.0 mi SE 18.4 mph 25.3 mph N/A   Overcast
7:35 PM 46.4 °F 39.5 °F 46.4 °F 100% 29.56 in 7.0 mi SE 17.3 mph 27.6 mph N/A   Overcast
7:55 PM 46.4 °F 38.7 °F 46.4 °F 100% 29.52 in 7.0 mi ESE 20.7 mph 28.8 mph N/A   Overcast
8:15 PM 48.2 °F - 48.2 °F 100% 29.50 in 7.0 mi SE 19.6 mph 25.3 mph N/A   Overcast
8:35 PM 48.2 °F - 48.2 °F 100% 29.49 in 7.0 mi SE 18.4 mph 24.2 mph N/A   Overcast
9:15 PM 48.2 °F - 48.2 °F 100% 29.48 in 4.0 mi SE 23.0 mph 28.8 mph 0.07 in Rain Heavy Rain
9:35 PM 48.2 °F - 48.2 °F 100% 29.43 in 3.0 mi SE 19.6 mph 27.6 mph 0.18 in Rain Light Rain
9:55 PM 48.2 °F - 48.2 °F 100% 29.41 in 7.0 mi ESE 17.3 mph 28.8 mph 0.24 in Rain Light Rain
10:15 PM 48.2 °F - 48.2 °F 100% 29.39 in 7.0 mi ESE 15.0 mph - N/A   Drizzle
10:35 PM 48.2 °F - 48.2 °F 100% 29.38 in 10.0 mi ESE 12.7 mph - 0.01 in Rain Light Rain
10:55 PM 48.2 °F - 48.2 °F 100% 29.38 in 10.0 mi ESE 20.7 mph 26.5 mph 0.05 in Rain Rain
11:15 PM 50.0 °F - 50.0 °F 100% 29.34 in 10.0 mi SE 17.3 mph 25.3 mph 0.04 in Rain Light Rain
11:35 PM 50.0 °F - 50.0 °F 100% 29.31 in 7.0 mi ESE 13.8 mph 20.7 mph 0.04 in   Mostly Cloudy